GW1669 Weather Reports


Display with metric or nautical units.
time (UTC)temp
F
wind
direction
speed
MPH
gust
MPH
rain 1hr
in
rain 24hr
in
rain mn
in
humidity
%
barometer
mb
20260509123744 49 291 3.0 6.0 0.07 0.08 0.08 95 1010.3
20260509123241 49 255 4.0 6.0 0.07 0.08 0.08 95 1010.3
20260509122736 49 258 4.0 6.0 0.00 0.07 0.07 95 1010.3
20260509122234 49 262 4.0 6.0 0.05 0.07 0.07 95 1010.3
20260509121731 49 258 3.0 8.0 0.05 0.07 0.07 94 1010.3
20260509121228 49 248 6.0 7.0 0.00 0.06 0.06 95 1010.3
20260509120726 49 211 3.0 6.0 0.00 0.06 0.06 94 1010.3
20260509120223 49 247 2.0 6.0 0.07 0.06 0.06 94 1010.3
20260509115721 49 188 2.0 3.0 0.07 0.06 0.06 94 1010.3
20260509115218 49 251 2.0 7.0 0.00 0.05 0.05 93 1010.3
20260509114717 49 249 2.0 3.0 0.05 0.05 0.05 93 1010.3
20260509114215 49 198 2.0 3.0 0.05 0.05 0.05 93 1010.3
20260509113713 49 214 2.0 3.0 0.00 0.04 0.04 93 1010.3
20260509113210 48 219 4.0 8.0 0.07 0.04 0.04 92 1010.3
20260509112707 48 233 3.0 4.0 0.00 0.03 0.03 92 1010.3
20260509112203 48 218 3.0 4.0 0.00 0.03 0.03 92 1010.3
20260509111701 48 267 5.0 6.0 0.00 0.03 0.03 93 1010.3
20260509111158 48 245 2.0 3.0 0.00 0.03 0.03 93 1010.3
20260509110655 48 195 2.0 3.0 0.00 0.03 0.03 92 1009.9
20260509110151 48 202 4.0 7.0 0.00 0.03 0.03 92 1010.3
20260509105650 48 281 5.0 6.0 0.00 0.03 0.03 92 1010.3
20260509105147 48 276 3.0 4.0 0.00 0.03 0.03 92 1009.9
20260509104644 48 221 3.0 6.0 0.00 0.03 0.03 92 1010.3
20260509104141 48 218 2.0 7.0 0.00 0.03 0.03 92 1010.3
20260509103639 48 232 4.0 4.0 0.00 0.03 0.03 92 1010.3
20260509103136 48 229 3.0 7.0 0.05 0.03 0.03 92 1010.3
20260509102634 48 196 3.0 3.0 0.00 0.02 0.02 92 1010.3
20260509102131 48 253 4.0 6.0 0.00 0.02 0.02 92 1010.3
20260509101627 48 201 1.0 3.0 0.00 0.02 0.02 92 1010.3
20260509101123 47 221 2.0 6.0 0.00 0.02 0.02 92 1010.3
20260509100621 47 194 2.0 6.0 0.00 0.02 0.02 93 1010.3
20260509100118 46 226 1.0 3.0 0.00 0.02 0.02 93 1010.7
20260509095614 46 211 2.0 3.0 0.00 0.02 0.02 94 1010.7
20260509095112 46 195 1.0 3.0 0.07 0.02 0.02 94 1010.7
20260509094608 46 177 0.0 2.0 0.00 0.02 0.02 94 1010.7
20260509094105 46 183 0.0 1.0 0.00 0.01 0.01 94 1010.7
20260509093604 46 207 1.0 2.0 0.00 0.01 0.01 94 1010.7
20260509093101 46 178 0.0 1.0 0.00 0.01 0.01 93 1010.7
20260509092558 46 204 4.0 6.0 0.00 0.01 0.01 93 1010.7
20260509092057 46 220 1.0 2.0 0.00 0.01 0.01 93 1010.7
20260509091554 46 177 0.0 2.0 0.00 0.01 0.01 94 1010.7
20260509091050 46 195 0.0 2.0 0.00 0.01 0.01 95 1010.3
20260509090548 46 239 0.0 1.0 0.00 0.01 0.01 95 1009.9
20260509090046 46 184 2.0 2.0 0.05 0.01 0.01 95 1009.9
20260509085542 46 191 2.0 2.0 0.05 0.01 0.01 96 1010.3
20260509085038 45 271 0.0 1.0 0.00 0.00 0.00 96 1009.9
20260509084536 45 211 0.0 1.0 0.00 0.00 0.00 96 1009.9
20260509084033 45 211 1.0 1.0 0.00 0.00 0.00 97 1009.9
20260509083530 45 169 0.0 0.0 0.00 0.00 0.00 97 1009.9
20260509083027 45 169 0.0 1.0 0.00 0.00 0.00 97 1009.9
20260509082524 45 168 0.0 0.0 0.00 0.00 0.00 97 1009.9
20260509082021 45 169 0.0 0.0 0.00 0.00 0.00 97 1009.6
20260509081519 45 157 0.0 0.0 0.00 0.00 0.00 97 1009.6
20260509081015 45 157 0.0 0.0 0.00 0.00 0.00 97 1009.6
20260509080513 45 157 0.0 0.0 0.00 0.00 0.00 97 1009.6
20260509080011 45 157 0.0 0.0 0.00 0.00 0.00 97 1009.6
20260509075508 45 157 0.0 0.0 0.00 0.00 0.00 97 1009.6
20260509075006 45 157 0.0 0.0 0.00 0.00 0.00 97 1009.6
20260509074503 45 157 0.0 1.0 0.00 0.00 0.00 97 1009.6
20260509073959 45 144 0.0 0.0 0.00 0.00 0.00 97 1009.6
20260509073455 45 144 0.0 0.0 0.00 0.00 0.00 97 1009.6
20260509072952 45 144 0.0 0.0 0.00 0.00 0.00 97 1009.6
20260509072449 45 144 0.0 1.0 0.00 0.00 0.00 97 1009.6
20260509071946 45 144 0.0 1.0 0.00 0.00 0.00 97 1009.6
20260509071442 45 144 0.0 0.0 0.00 0.00 0.00 97 1009.6
20260509070940 45 144 0.0 1.0 0.00 0.00 0.00 96 1009.6
20260509070437 45 144 0.0 0.0 0.00 0.00 0.00 96 1009.6
20260509065932 45 144 0.0 1.0 0.00 0.00 0.00 96 1009.6
20260509065428 45 144 0.0 1.0 0.00 0.00 0.00 96 1009.9
20260509064925 45 137 1.0 1.0 0.00 0.00 0.00 96 1009.9
20260509064423 45 142 0.0 0.0 0.00 0.00 0.00 95 1009.9
20260509063920 45 142 0.0 0.0 0.00 0.00 0.00 95 1010.3
20260509063416 46 142 0.0 0.0 0.00 0.00 0.00 95 1010.3
20260509062913 46 142 0.0 1.0 0.00 0.00 0.00 95 1010.3
20260509062410 46 125 1.0 1.0 0.00 0.00 0.00 95 1010.7
20260509061907 46 145 0.0 0.0 0.00 0.00 0.00 94 1010.7
20260509061405 46 145 0.0 0.0 0.00 0.00 0.00 94 1010.7
20260509060902 46 145 0.0 0.0 0.00 0.00 0.00 94 1010.7
20260509060359 46 144 0.0 1.0 0.00 0.00 0.00 94 1011.0
20260509055854 46 142 0.0 1.0 0.00 0.00 0.00 94 1010.7
20260509055350 46 147 0.0 0.0 0.00 0.00 0.00 94 1011.0
20260509054847 46 147 0.0 0.0 0.00 0.00 0.00 94 1011.0
20260509054344 46 147 0.0 0.0 0.00 0.00 0.00 94 1011.3
20260509053842 46 147 0.0 1.0 0.00 0.00 0.00 94 1011.3
20260509053339 46 147 0.0 0.0 0.00 0.00 0.00 94 1011.3
20260509052837 46 147 0.0 0.0 0.00 0.00 0.00 93 1011.3
20260509052334 46 147 0.0 0.0 0.00 0.00 0.00 92 1011.3
20260509051832 46 147 0.0 0.0 0.00 0.00 0.00 91 1011.0
20260509051330 47 147 0.0 0.0 0.00 0.00 0.00 91 1011.3
20260509050826 47 147 0.0 0.0 0.00 0.00 0.00 90 1011.3
20260509050323 47 90 0.0 0.0 0.00 0.00 0.00 89 1011.3
20260509045820 47 89 1.0 1.0 0.00 0.00 0.00 89 1011.3
20260509045317 47 127 0.0 1.0 0.00 0.00 0.00 89 1011.7
20260509044814 47 136 0.0 1.0 0.00 0.00 0.00 89 1011.3
20260509044312 47 126 1.0 2.0 0.00 0.00 0.00 90 1011.7
20260509043808 47 147 1.0 1.0 0.00 0.00 0.00 90 1011.3
20260509043304 47 136 1.0 1.0 0.00 0.00 0.00 90 1011.7
20260509042800 47 137 1.0 2.0 0.00 0.00 0.00 90 1011.7
20260509042257 47 148 0.0 1.0 0.00 0.00 0.00 91 1011.7
20260509041753 47 159 1.0 2.0 0.00 0.00 0.00 91 1011.7
20260509041250 47 151 2.0 2.0 0.00 0.00 0.00 91 1012.1
20260509040749 47 141 1.0 2.0 0.00 0.00 0.00 90 1012.1
20260509040246 47 125 0.0 1.0 0.00 0.00 0.00 89 1012.5
20260509035742 47 90 1.0 2.0 0.00 0.00 0.00 89 1012.5
20260509035239 47 144 0.0 1.0 0.00 0.00 0.00 89 1012.5
20260509034736 47 144 0.0 1.0 0.00 0.00 0.00 88 1012.5
20260509034234 47 134 0.0 2.0 0.00 0.00 0.00 88 1012.5
20260509033731 47 141 2.0 2.0 0.00 0.00 0.00 87 1012.5
20260509033228 48 94 1.0 1.0 0.00 0.00 0.00 87 1012.5
20260509032725 48 91 0.0 1.0 0.00 0.00 0.00 86 1012.5
20260509032222 48 127 2.0 2.0 0.00 0.00 0.00 86 1012.1
20260509031719 48 144 0.0 2.0 0.00 0.00 0.00 86 1012.1
20260509031217 48 120 2.0 3.0 0.00 0.00 0.00 85 1012.1
20260509030714 48 142 2.0 2.0 0.00 0.00 0.00 85 1012.1
20260509030211 48 90 2.0 3.0 0.00 0.00 0.00 84 1012.5
20260509025708 48 128 1.0 2.0 0.00 0.00 0.00 85 1012.1
20260509025204 48 172 1.0 1.0 0.00 0.00 0.00 86 1012.1
20260509024659 48 152 1.0 2.0 0.00 0.00 0.00 84 1012.1
20260509024155 48 70 2.0 2.0 0.00 0.00 0.00 84 1012.1
20260509023653 48 135 1.0 2.0 0.00 0.00 0.00 84 1012.1
20260509023150 48 137 1.0 1.0 0.00 0.00 0.00 82 1012.1
20260509022646 48 137 0.0 1.0 0.00 0.00 0.00 83 1012.1
20260509022144 48 132 1.0 1.0 0.00 0.00 0.00 82 1011.7
20260509021641 48 134 0.0 0.0 0.00 0.00 0.00 81 1011.7
20260509021138 48 134 0.0 0.0 0.00 0.00 0.00 79 1011.7
20260509020636 48 76 0.0 1.0 0.00 0.00 0.00 80 1011.7
20260509020133 48 76 0.0 1.0 0.00 0.00 0.00 78 1011.3
20260509015632 48 76 1.0 1.0 0.00 0.00 0.00 78 1011.7
20260509015129 48 76 1.0 1.0 0.00 0.00 0.00 79 1011.7
20260509014625 48 97 1.0 2.0 0.00 0.00 0.00 80 1011.7
20260509014121 48 163 0.0 1.0 0.00 0.00 0.00 79 1011.3
20260509013619 48 154 0.0 1.0 0.00 0.00 0.00 81 1011.3
20260509013114 48 179 1.0 2.0 0.00 0.00 0.00 82 1011.3
20260509012611 48 160 0.0 1.0 0.00 0.00 0.00 83 1011.3
20260509012108 48 159 1.0 2.0 0.00 0.00 0.00 83 1011.3
20260509011606 48 155 0.0 0.0 0.00 0.00 0.00 84 1011.7
20260509011103 48 153 0.0 0.0 0.00 0.00 0.00 82 1011.7
20260509010601 48 154 0.0 1.0 0.00 0.00 0.00 83 1011.7
20260509010057 49 146 0.0 1.0 0.00 0.00 0.00 82 1011.7
20260509005555 49 134 2.0 2.0 0.00 0.00 0.00 81 1011.7
20260509005050 49 171 1.0 1.0 0.00 0.00 0.00 80 1011.3
20260509004547 49 145 0.0 1.0 0.00 0.00 0.00 77 1011.7
20260509004044 49 129 1.0 1.0 0.00 0.00 0.00 77 1011.7
20260509003542 49 158 0.0 0.0 0.00 0.00 0.00 76 1011.7
20260509003039 49 158 0.0 0.0 0.00 0.00 0.00 76 1011.3
20260509002537 50 150 0.0 0.0 0.00 0.00 0.00 75 1011.3
20260509002034 50 139 0.0 1.0 0.00 0.00 0.00 72 1011.3
20260509001531 50 138 0.0 1.0 0.00 0.00 0.00 72 1011.3
20260509001027 50 149 0.0 0.0 0.00 0.00 0.00 74 1011.3
20260509000526 50 157 0.0 1.0 0.00 0.00 0.00 73 1011.3
20260509000021 51 150 0.0 1.0 0.00 0.00 0.00 70 1011.3
20260508235519 51 115 1.0 1.0 0.00 0.00 0.00 72 1011.3
20260508235015 51 164 0.0 1.0 0.00 0.00 0.00 70 1011.3
20260508234513 51 164 1.0 2.0 0.00 0.00 0.00 70 1011.3
20260508234010 51 145 0.0 1.0 0.00 0.00 0.00 68 1011.3
20260508233509 52 146 0.0 1.0 0.00 0.00 0.00 68 1011.3
20260508233006 52 178 0.0 1.0 0.00 0.00 0.00 68 1011.3
20260508232503 52 164 0.0 1.0 0.00 0.00 0.00 68 1011.3
20260508232000 53 180 0.0 1.0 0.00 0.00 0.00 66 1011.3
20260508231457 53 135 0.0 0.0 0.00 0.00 0.00 67 1011.3
20260508230954 53 314 1.0 2.0 0.00 0.00 0.00 65 1011.3
20260508230451 53 335 3.0 3.0 0.00 0.00 0.00 63 1011.3
20260508225947 53 166 1.0 1.0 0.00 0.00 0.00 66 1011.3
20260508225444 53 192 0.0 1.0 0.00 0.00 0.00 65 1011.3
20260508224942 54 155 0.0 0.0 0.00 0.00 0.00 66 1011.3
20260508224439 53 152 0.0 1.0 0.00 0.00 0.00 66 1011.3
20260508223936 53 192 1.0 2.0 0.00 0.00 0.00 65 1011.3
20260508223434 53 211 1.0 2.0 0.00 0.00 0.00 66 1011.3
20260508222931 53 227 2.0 4.0 0.00 0.00 0.00 66 1011.3
20260508222429 53 202 2.0 3.0 0.00 0.00 0.00 68 1011.3
20260508221925 53 267 2.0 4.0 0.00 0.00 0.00 65 1011.3
20260508221421 53 240 3.0 3.0 0.00 0.00 0.00 66 1011.3
20260508220917 53 201 2.0 3.0 0.00 0.00 0.00 68 1011.3
20260508220414 53 242 2.0 6.0 0.00 0.00 0.00 67 1011.3
20260508215910 53 220 1.0 2.0 0.00 0.00 0.00 66 1011.3
20260508215407 53 192 1.0 2.0 0.00 0.00 0.00 66 1011.3
20260508214903 53 249 2.0 7.0 0.00 0.00 0.00 66 1011.3
20260508214402 53 252 1.0 3.0 0.00 0.00 0.00 68 1011.3
20260508213857 52 285 3.0 4.0 0.00 0.00 0.00 68 1011.7
20260508213355 52 187 1.0 3.0 0.00 0.00 0.00 69 1011.7
20260508212850 52 292 2.0 3.0 0.00 0.00 0.00 68 1011.7
20260508212347 52 263 2.0 3.0 0.00 0.00 0.00 68 1011.7
20260508211843 53 213 3.0 6.0 0.00 0.00 0.00 67 1011.7
20260508211339 53 344 4.0 6.0 0.00 0.00 0.00 66 1011.7
20260508210836 53 228 3.0 6.0 0.00 0.00 0.00 67 1011.7
20260508210333 54 268 4.0 7.0 0.00 0.00 0.00 63 1011.7
20260508205830 53 305 4.0 6.0 0.00 0.00 0.00 65 1011.7
20260508205326 53 293 7.0 11.0 0.00 0.00 0.00 66 1011.3
20260508204822 53 171 3.0 7.0 0.00 0.00 0.00 67 1011.7
20260508204319 53 288 4.0 10.0 0.00 0.00 0.00 65 1012.1
20260508203815 54 269 4.0 15.0 0.00 0.00 0.00 64 1012.1
20260508203312 54 345 2.0 3.0 0.00 0.00 0.00 65 1012.1
20260508202807 55 201 3.0 7.0 0.00 0.00 0.00 61 1011.7
20260508202307 55 173 2.0 7.0 0.00 0.00 0.00 61 1012.1
20260508201802 54 299 3.0 6.0 0.00 0.00 0.00 62 1011.7
20260508201259 55 321 4.0 9.0 0.00 0.00 0.00 60 1012.1
20260508200755 55 322 4.0 7.0 0.00 0.00 0.00 60 1011.7
20260508200252 55 286 5.0 14.0 0.00 0.00 0.00 59 1011.7
20260508195748 55 261 3.0 7.0 0.00 0.00 0.00 61 1011.7
20260508195244 55 230 4.0 10.0 0.00 0.00 0.00 59 1011.7
20260508194741 55 260 7.0 13.0 0.00 0.00 0.00 59 1011.7
20260508194238 55 287 7.0 9.0 0.00 0.00 0.00 58 1011.7
20260508193735 55 305 4.0 8.0 0.00 0.00 0.00 62 1012.1
20260508193231 54 167 3.0 4.0 0.00 0.00 0.00 63 1012.1
20260508192728 54 286 4.0 11.0 0.00 0.00 0.00 61 1012.1
20260508192225 53 311 4.0 7.0 0.00 0.00 0.00 64 1012.1
20260508191722 53 269 4.0 8.0 0.00 0.00 0.00 64 1012.5
20260508191219 53 244 1.0 6.0 0.00 0.00 0.00 67 1012.5
20260508190716 54 261 5.0 10.0 0.00 0.00 0.00 62 1012.1
20260508190213 54 292 8.0 10.0 0.00 0.00 0.00 62 1012.1
20260508185709 55 247 11.0 15.0 0.00 0.00 0.00 61 1012.1
20260508185208 56 307 4.0 16.0 0.00 0.00 0.00 56 1012.1
20260508184704 57 277 8.0 17.0 0.00 0.00 0.00 52 1012.1
20260508184201 58 321 3.0 7.0 0.00 0.00 0.00 51 1011.7
20260508183658 59 244 4.0 8.0 0.00 0.00 0.00 52 1011.7
20260508183153 58 134 2.0 9.0 0.00 0.00 0.00 52 1011.7
20260508182644 56 304 3.0 6.0 0.00 0.00 0.00 53 1011.7
20260508182141 56 322 2.0 8.0 0.00 0.00 0.00 56 1011.7
20260508181637 55 308 4.0 8.0 0.00 0.00 0.00 56 1012.1
20260508181134 55 236 1.0 6.0 0.00 0.00 0.00 58 1012.1
20260508180631 54 232 5.0 16.0 0.00 0.00 0.00 59 1012.1
20260508180128 56 178 3.0 9.0 0.00 0.00 0.00 59 1012.1
20260508175624 57 301 8.0 10.0 0.00 0.00 0.00 50 1012.1
20260508175121 57 300 3.0 10.0 0.00 0.00 0.00 50 1012.1
20260508174619 56 237 2.0 4.0 0.00 0.00 0.00 49 1012.1
20260508174115 57 286 6.0 22.0 0.00 0.00 0.00 46 1012.1
20260508173612 59 249 5.0 10.0 0.00 0.00 0.00 49 1012.1
20260508173108 61 216 4.0 14.0 0.00 0.00 0.00 44 1012.1
20260508172606 59 318 5.0 10.0 0.00 0.00 0.00 46 1012.5
20260508172102 59 352 7.0 11.0 0.00 0.00 0.00 43 1012.5
20260508171559 59 313 6.0 8.0 0.00 0.00 0.00 44 1012.5
20260508171055 59 244 9.0 19.0 0.00 0.00 0.00 45 1012.5
20260508170553 59 287 4.0 16.0 0.00 0.00 0.00 47 1012.5
20260508170050 58 347 5.0 10.0 0.00 0.00 0.00 47 1012.5
20260508165547 59 258 5.0 14.0 0.00 0.00 0.00 48 1012.5
20260508165044 59 229 4.0 11.0 0.00 0.00 0.00 48 1012.5
20260508164540 60 221 3.0 15.0 0.00 0.00 0.00 46 1012.5
20260508164037 60 324 5.0 9.0 0.00 0.00 0.00 45 1012.5
20260508163535 59 348 3.0 7.0 0.00 0.00 0.00 49 1012.5
20260508163031 60 252 12.0 15.0 0.00 0.00 0.00 45 1012.5
20260508162528 58 316 1.0 8.0 0.00 0.00 0.00 51 1012.5
20260508162025 58 321 5.0 13.0 0.00 0.00 0.00 48 1012.8
20260508161522 58 323 4.0 9.0 0.00 0.00 0.00 49 1012.8
20260508161019 58 227 8.0 11.0 0.00 0.00 0.00 50 1012.8
20260508160518 58 319 4.0 9.0 0.00 0.00 0.00 48 1013.1
20260508160014 57 287 6.0 9.0 0.00 0.00 0.00 51 1013.1
20260508155511 56 285 5.0 6.0 0.00 0.00 0.00 49 1012.8
20260508155008 56 283 8.0 13.0 0.00 0.00 0.00 50 1013.1
20260508154506 56 247 4.0 9.0 0.00 0.00 0.00 48 1013.1
20260508154002 56 298 4.0 7.0 0.00 0.00 0.00 52 1013.1
20260508153459 57 285 4.0 9.0 0.00 0.00 0.00 47 1013.1
20260508152955 55 256 3.0 6.0 0.00 0.00 0.00 53 1013.1
20260508152452 55 260 6.0 8.0 0.00 0.00 0.00 51 1013.1
20260508151948 55 227 5.0 7.0 0.00 0.00 0.00 48 1013.1
20260508151445 56 309 5.0 9.0 0.00 0.00 0.00 47 1013.5
20260508150941 55 274 2.0 8.0 0.00 0.00 0.00 55 1013.1
20260508150438 53 249 2.0 3.0 0.00 0.00 0.00 55 1013.1
20260508145934 53 333 6.0 9.0 0.00 0.00 0.00 50 1013.5
20260508145431 53 181 5.0 7.0 0.00 0.00 0.00 51 1013.1
20260508144927 53 225 3.0 6.0 0.00 0.00 0.00 51 1013.1
20260508144425 53 283 7.0 10.0 0.00 0.00 0.00 51 1013.1
20260508143923 52 339 5.0 15.0 0.00 0.00 0.00 50 1013.1
20260508143420 52 271 5.0 7.0 0.00 0.00 0.00 52 1013.1
20260508142916 51 318 4.0 10.0 0.00 0.00 0.00 52 1013.1
20260508142414 52 212 2.0 4.0 0.00 0.00 0.00 50 1013.1
20260508141910 52 235 4.0 8.0 0.00 0.00 0.00 53 1013.1
20260508141406 51 249 5.0 10.0 0.00 0.00 0.00 50 1013.1
20260508140904 52 236 4.0 7.0 0.00 0.00 0.00 52 1013.1
20260508140401 52 291 3.0 7.0 0.00 0.00 0.00 53 1013.1
20260508135856 50 292 4.0 8.0 0.00 0.00 0.00 54 1013.1
20260508135354 50 280 2.0 4.0 0.00 0.00 0.00 56 1013.1
20260508134850 50 300 3.0 9.0 0.00 0.00 0.00 54 1013.5
20260508134346 50 238 3.0 4.0 0.00 0.00 0.00 55 1013.1
20260508133843 50 292 2.0 4.0 0.00 0.00 0.00 54 1013.1
20260508133341 50 358 2.0 15.0 0.00 0.00 0.00 54 1013.1
20260508132837 50 335 7.0 11.0 0.00 0.00 0.00 55 1013.1
20260508132335 50 282 5.0 8.0 0.00 0.00 0.00 56 1013.5
20260508131832 50 300 6.0 8.0 0.00 0.00 0.00 56 1013.1
20260508131327 50 276 2.0 9.0 0.00 0.00 0.00 59 1013.1
20260508130824 49 225 2.0 8.0 0.00 0.00 0.00 56 1013.1
20260508130321 49 336 1.0 10.0 0.00 0.00 0.00 59 1013.1
20260508125817 50 294 8.0 10.0 0.00 0.00 0.00 57 1013.1
20260508125314 49 164 3.0 4.0 0.00 0.00 0.00 57 1013.1
20260508124812 48 253 2.0 6.0 0.00 0.00 0.00 58 1013.5
20260508124309 48 259 8.0 10.0 0.00 0.00 0.00 59 1013.1